FORMOSAT-3 FM5 (29049 NORAD) Tracking and Keplerian Element Data

This shows tracking and keplerian element data for the satellite.

Feedback or suggestion? Click here.




ElementValue
Catalog29049
NameFORMOSAT-3 FM5
Epoch Orbit63954
Epoch Day198.91436866
Epoch Year2018
RAAN179.0879
Inclination72.0189
Eccentricity0.0035096
Argument of Perigee182.7984
Mean Anonmoly177.2962
Mean Motion14.28657382
Decay Rate4E-07
L11 29049U 06011C 18198.91436866 .00000040 00000-0 32267-4 0 9990
L22 29049 72.0189 179.0879 0035096 182.7984 177.2962 14.28657382639543

Live tracking and technical data element details for FORMOSAT-3 FM5 (NORAD 29049). FORMOSAT-3 FM5 can be tracked NOW for your location showing map with azimuth and elevation plus other details from your city location.

Track the satellite on the map from your city or location and see movement details for azimuth, elevation, latitude, longitude, range, height, and movement on the map or in text.







IsCatalogInMostPopularTable: catalog: 29049, numindb: 33
Update: records affected: 1



GetName: 29049 FORMOSAT-3 FM5

Hit Count: updated at: Fri, 20 Jul 2018 20:23:41 GMT